DL1BWU Weather Reports


time (UTC)temp
C
wind
direction
speed
KPH
gust
KPH
rain 1hr
cm
rain 24hr
cm
rain mn
cm
humidity
%
barometer
mb
20260507195502 8 45 0.0 0.0 0.00 0.00 0.00 70 1017.8
20260507194502 8 45 0.0 0.0 0.00 0.00 0.00 70 1017.6
20260507193502 8 45 0.0 0.0 0.00 0.00 0.00 70 1017.5
20260507192502 8 45 0.0 0.0 0.00 0.00 0.00 70 1017.4
20260507191502 9 45 0.0 0.0 0.00 0.00 0.00 70 1017.3
20260507190503 9 45 0.0 0.0 0.00 0.00 0.00 70 1017.2
20260507185502 9 45 0.0 0.0 0.00 0.00 0.00 69 1017.1
20260507184502 9 45 0.0 0.0 0.00 0.00 0.00 69 1017.1
20260507183502 10 67 0.0 0.0 0.00 0.00 0.00 69 1017.0
20260507182502 10 67 0.0 0.0 0.00 0.00 0.00 69 1016.9
20260507181502 10 67 0.0 0.0 0.00 0.00 0.00 69 1016.8
20260507180502 10 67 0.0 0.0 0.00 0.00 0.00 69 1016.7
20260507175502 10 22 0.0 0.0 0.00 0.00 0.00 69 1016.7
20260507174502 10 67 0.0 0.0 0.00 0.00 0.00 69 1016.7
20260507173502 10 67 0.0 0.0 0.00 0.00 0.00 69 1016.4
20260507172502 10 67 0.0 0.0 0.00 0.00 0.00 70 1016.4
20260507171502 10 112 0.0 0.0 0.00 0.00 0.00 70 1016.2
20260507170502 10 112 0.0 0.0 0.00 0.00 0.00 70 1016.2
20260507165502 10 157 0.0 0.0 0.00 0.00 0.00 70 1016.4
20260507164502 10 157 0.0 0.0 0.00 0.00 0.00 70 1016.4
20260507163502 10 157 0.0 0.0 0.00 0.00 0.00 70 1016.1
20260507162502 10 157 0.0 0.0 0.00 0.00 0.00 70 1016.2
20260507161502 10 157 0.0 0.0 0.00 0.00 0.00 70 1016.1
20260507160502 10 157 0.0 0.0 0.00 0.00 0.00 70 1016.2
20260507155502 10 157 0.0 0.0 0.00 0.00 0.00 70 1016.2
20260507154502 10 157 0.0 0.0 0.00 0.00 0.00 70 1016.0
20260507153502 10 157 0.0 0.0 0.00 0.00 0.00 70 1015.9
20260507152502 10 157 0.0 0.0 0.00 0.00 0.00 70 1015.9
20260507151502 10 157 0.0 0.0 0.00 0.00 0.00 69 1015.8
20260507150502 10 157 0.0 0.0 0.00 0.00 0.00 69 1015.7
20260507145502 10 157 0.0 0.0 0.00 0.00 0.00 69 1015.6
20260507144502 10 157 0.0 0.0 0.00 0.00 0.00 69 1015.6
20260507143502 11 157 0.0 0.0 0.00 0.00 0.00 69 1015.5
20260507142502 11 157 0.0 0.0 0.00 0.00 0.00 68 1015.6
20260507141502 11 180 0.0 0.0 0.00 0.00 0.00 68 1015.4
20260507140502 11 157 0.0 0.0 0.00 0.00 0.00 68 1015.3
20260507135502 11 180 0.0 0.0 0.00 0.00 0.00 68 1015.2
20260507134502 11 180 0.0 0.0 0.00 0.00 0.00 68 1015.2
20260507133502 11 157 0.0 0.0 0.00 0.00 0.00 68 1015.1
20260507132502 11 135 0.0 0.0 0.00 0.00 0.00 68 1015.2
20260507131502 11 67 0.0 0.0 0.00 0.00 0.00 67 1015.0
20260507130503 11 315 0.0 0.0 0.00 0.00 0.00 67 1015.0
20260507125503 10 157 0.0 0.0 0.00 0.00 0.00 68 1015.1
20260507124503 10 247 0.0 0.0 0.00 0.00 0.00 68 1015.0
20260507123503 10 45 0.0 0.0 0.00 0.00 0.00 69 1015.0
20260507122503 10 67 0.0 0.0 0.00 0.00 0.00 69 1014.8
20260507121503 10 67 0.0 0.0 0.00 0.00 0.00 69 1014.9
20260507120503 10 45 0.0 0.0 0.00 0.00 0.00 69 1014.8
20260507115503 10 45 0.0 0.0 0.00 0.00 0.00 69 1014.9
20260507114503 9 157 0.0 0.0 0.00 0.00 0.00 69 1014.8
20260507113503 9 67 0.0 0.0 0.00 0.00 0.00 70 1014.8
20260507112503 9 67 0.0 0.0 0.00 0.00 0.00 70 1014.8
20260507111503 9 45 0.0 0.0 0.00 0.00 0.00 70 1014.8
20260507110503 9 337 0.0 0.0 0.00 0.00 0.00 70 1014.8
20260507105503 9 135 0.0 0.0 0.00 0.10 0.00 70 1014.7
20260507104503 8 180 0.0 0.0 0.00 0.10 0.00 70 1014.7
20260507103503 8 22 0.0 0.0 0.00 0.10 0.00 71 1014.7
20260507102503 8 67 0.0 0.0 0.00 0.10 0.00 71 1014.6
20260507101503 8 90 0.0 0.0 0.00 0.10 0.00 71 1014.5
20260507100503 8 180 0.0 0.0 0.00 0.10 0.00 72 1014.5
20260507095503 8 135 0.0 0.0 0.00 0.25 0.00 72 1014.3
20260507094503 8 270 0.0 0.0 0.00 0.25 0.00 72 1014.1
20260507093503 8 67 0.0 0.0 0.00 0.25 0.00 72 1013.9
20260507092503 7 315 0.0 0.0 0.00 0.25 0.00 72 1014.0
20260507091503 7 67 0.0 0.0 0.00 0.25 0.00 72 1013.7
20260507090503 7 157 0.0 0.0 0.00 0.25 0.00 72 1013.8
20260507085503 7 67 0.0 0.0 0.00 0.51 0.00 72 1013.6
20260507084503 7 270 0.0 0.0 0.00 0.51 0.00 72 1013.5
20260507083503 7 337 0.0 0.0 0.00 0.51 0.00 72 1013.4
20260507082503 7 67 0.0 0.0 0.00 0.51 0.00 72 1013.3
20260507081503 7 270 0.0 0.0 0.00 0.51 0.00 72 1013.2
20260507080503 8 112 0.0 0.0 0.00 0.51 0.00 72 1013.0
20260507075503 8 157 0.0 0.0 0.00 0.76 0.00 72 1013.0
20260507074759 8 45 0.0 0.0 0.00 0.76 0.00 72 1012.8
20260507074503 8 45 0.0 0.0 0.00 0.76 0.00 72 1012.8
20260507073503 7 157 0.0 0.0 0.00 0.76 0.00 72 1012.7
20260507072503 7 0 0.0 0.0 0.00 0.76 0.00 72 1012.6
20260507071504 7 135 0.0 0.0 0.00 0.76 0.00 72 1012.8
20260507070503 7 0 0.0 0.0 0.00 0.76 0.00 72 1012.6
20260507065503 7 67 0.0 0.0 0.00 0.97 0.00 72 1012.4
20260507064504 7 45 0.0 0.0 0.00 0.97 0.00 72 1012.6
20260507063503 7 90 0.0 0.0 0.00 0.97 0.00 72 1012.5
20260507062503 7 112 0.0 0.0 0.00 0.97 0.00 72 1012.5
20260507061503 7 112 0.0 0.0 0.00 0.97 0.00 72 1012.3
20260507060503 7 135 0.0 0.0 0.00 0.97 0.00 72 1012.3
20260507055503 7 157 0.0 0.0 0.00 1.07 0.00 72 1012.1
20260507054504 7 67 0.0 0.0 0.00 1.07 0.00 72 1011.9
20260507053503 7 90 0.0 0.0 0.00 1.07 0.00 72 1012.0
20260507052503 7 112 0.0 0.0 0.00 1.07 0.00 72 1011.9
20260507051504 7 225 0.0 0.0 0.00 1.07 0.00 72 1011.9
20260507050504 7 22 0.0 0.0 0.00 1.07 0.00 72 1011.7
20260507045504 6 135 0.0 0.0 0.00 1.27 0.00 72 1011.7
20260507044504 6 202 0.0 0.0 0.00 1.27 0.00 72 1011.6
20260507043504 6 67 0.0 0.0 0.00 1.27 0.00 72 1011.6
20260507042504 6 45 0.0 0.0 0.00 1.27 0.00 72 1011.2
20260507041504 6 45 0.0 0.0 0.00 1.27 0.00 72 1011.2
20260507040504 6 135 0.0 0.0 0.00 1.27 0.00 73 1011.1
20260507035504 6 112 0.0 0.0 0.00 1.50 0.00 73 1011.1
20260507034504 6 67 0.0 0.0 0.00 1.50 0.00 73 1011.0
20260507033504 6 67 0.0 0.0 0.00 1.50 0.00 72 1011.0
20260507032504 6 337 0.0 0.0 0.00 1.50 0.00 73 1011.0
20260507031504 6 45 0.0 0.0 0.00 1.50 0.00 73 1011.0
20260507030504 6 112 0.0 0.0 0.00 1.50 0.00 73 1010.8
20260507025504 7 180 0.0 0.0 0.00 1.91 0.00 72 1010.8
20260507024504 7 90 0.0 0.0 0.00 1.91 0.00 72 1010.9
20260507023504 7 157 0.0 0.0 0.00 1.91 0.00 72 1010.8
20260507022504 7 157 0.0 0.0 0.00 1.91 0.00 72 1010.7
20260507021504 7 157 0.0 0.0 0.00 1.91 0.00 72 1010.7
20260507020504 7 22 0.0 0.0 0.00 1.91 0.00 72 1010.7
20260507015504 7 45 0.0 0.0 0.00 2.16 0.00 72 1010.7
20260507014504 7 135 0.0 0.0 0.00 2.16 0.00 72 1010.5
20260507013504 7 45 0.0 0.0 0.00 2.16 0.00 72 1010.4
20260507012504 7 67 0.0 0.0 0.00 2.16 0.00 72 1010.4
20260507011504 7 135 0.0 0.0 0.00 2.16 0.00 72 1010.4
20260507010504 7 22 0.0 0.0 0.00 2.16 0.00 72 1010.2
20260507005504 7 135 0.0 0.0 0.00 2.16 0.00 72 1010.0
20260507004504 7 135 0.0 0.0 0.00 2.16 0.00 72 1009.9
20260507003504 7 112 0.0 0.0 0.00 2.16 0.00 72 1009.8
20260507002504 7 112 0.0 0.0 0.00 2.16 0.00 72 1009.8
20260507001504 7 112 0.0 0.0 0.00 2.16 0.00 72 1009.7
20260507000505 7 112 0.0 0.0 0.00 2.16 0.00 72 1009.7
20260506235504 7 90 0.0 0.0 0.00 2.16 0.00 72 1010.0
20260506234504 7 67 0.0 0.0 0.00 2.16 0.00 72 1010.0
20260506233504 7 112 0.0 0.0 0.00 2.16 0.00 72 1010.0
20260506232504 7 180 0.0 0.0 0.00 2.16 0.00 72 1009.9
20260506231504 7 22 0.0 0.0 0.00 2.16 0.00 72 1009.8
20260506230504 7 67 0.0 0.0 0.00 2.16 0.00 72 1009.8
20260506225504 7 157 0.0 0.0 0.00 2.16 0.00 72 1009.5
20260506224558 7 67 0.0 0.0 0.00 2.16 0.00 72 1009.5
20260506224504 7 67 0.0 0.0 0.00 2.16 0.00 72 1009.5
20260506223504 7 112 0.0 0.0 0.00 2.16 0.00 72 1009.4
20260506222504 7 135 0.0 0.0 0.00 2.16 0.00 72 1009.4
20260506221504 7 112 0.0 0.0 0.00 2.16 0.00 72 1009.5
20260506220504 7 112 0.0 0.0 0.00 2.16 0.00 72 1009.5
20260506215504 8 90 0.0 0.0 0.00 2.16 0.00 72 1009.6
20260506214504 8 22 0.0 0.0 0.00 2.16 0.00 72 1009.6
20260506213504 8 292 0.0 0.0 0.00 2.16 0.00 72 1009.4
20260506212505 9 45 0.0 0.0 0.00 2.16 0.00 72 1009.3
20260506211505 9 157 0.0 0.0 0.00 2.16 0.00 72 1009.1
20260506210505 9 90 0.0 0.0 0.00 2.16 0.00 72 1008.9
20260506205505 9 45 0.0 0.0 0.00 2.16 0.00 72 1008.9
20260506204505 10 67 0.0 0.0 0.00 2.16 0.00 72 1008.8
20260506203505 10 67 0.0 0.0 0.00 2.16 0.00 72 1008.5
20260506202505 10 67 0.0 0.0 0.00 2.16 0.00 72 1008.6
20260506201505 10 90 0.0 0.0 0.00 2.16 0.00 72 1008.5
20260506200505 10 90 0.0 0.0 0.00 2.16 0.00 72 1008.5